DW8004 Weather Reports


Display with metric or nautical units.
time (UTC)temp
F
wind
direction
speed
MPH
gust
MPH
rain 1hr
in
rain 24hr
in
rain mn
in
humidity
%
barometer
mb
20260903221539 70 200 0.0 0.0 0.00 0.00 0.00 87 1010.7
20260903220031 72 200 0.0 0.0 0.00 0.00 0.00 84 1010.7
20260903214534 72 236 0.0 0.0 0.00 0.00 0.00 82 1010.7
20260903213006 73 215 0.0 0.0 0.00 0.00 0.00 82 1011.1
20260903211535 73 209 0.0 0.0 0.00 0.00 0.00 84 1010.8
20260903210100 74 236 0.0 0.0 0.00 0.00 0.00 83 1010.8
20260903204559 74 348 0.0 0.0 0.00 0.00 0.00 82 1010.8
20260903203053 73 170 0.0 0.0 0.00 0.00 0.00 84 1011.0
20260903201526 73 232 0.0 0.0 0.00 0.00 0.00 83 1011.0
20260903200045 73 253 0.0 0.0 0.00 0.00 0.00 82 1011.0
20260903194551 73 217 0.0 0.0 0.00 0.00 0.00 84 1011.2
20260903193055 72 146 0.0 0.0 0.00 0.00 0.00 84 1011.4
20260903191603 71 290 0.0 0.0 0.00 0.00 0.00 88 1011.7
20260903190101 70 266 0.0 0.0 0.00 0.00 0.00 90 1011.7
20260903184550 69 231 0.0 0.0 0.00 0.00 0.00 91 1012.0
20260903183038 69 168 0.0 0.0 0.00 0.00 0.00 91 1012.1
20260903181502 69 224 0.0 0.0 0.00 0.00 0.00 90 1012.1
20260903180023 69 206 0.0 0.0 0.00 0.00 0.00 90 1012.0
20260903174528 69 206 0.0 0.0 0.00 0.00 0.00 91 1012.2
20260903173035 69 206 0.0 0.0 0.00 0.00 0.00 91 1012.1
20260903171530 68 240 0.0 0.0 0.00 0.00 0.00 91 1012.4
20260903170037 69 201 0.0 0.0 0.00 0.00 0.00 90 1012.5
20260903164537 69 272 0.0 0.0 0.00 0.00 0.00 90 1012.6
20260903163044 70 254 0.0 0.0 0.00 0.00 0.00 89 1012.6
20260903161515 70 206 0.0 0.0 0.00 0.00 0.00 88 1012.5
20260903160008 69 242 0.0 0.0 0.00 0.00 0.00 91 1012.6
20260903154509 68 208 0.0 0.0 0.00 0.00 0.00 91 1012.8
20260903153132 68 240 0.0 0.0 0.00 0.00 0.00 91 1012.9
20260903151528 68 188 0.0 0.0 0.00 0.00 0.00 93 1012.7
20260903150008 66 123 0.0 0.0 0.00 0.00 0.00 94 1012.8
20260903144538 65 165 0.0 0.0 0.00 0.00 0.00 95 1013.1
20260903143015 64 165 0.0 0.0 0.00 0.00 0.00 96 1013.2
20260903141524 63 165 0.0 0.0 0.00 0.00 0.00 97 1013.3
20260903140001 63 165 0.0 0.0 0.00 0.00 0.00 97 1013.5
20260903134640 62 167 0.0 0.0 0.00 0.00 0.00 98 1013.3
20260903133013 61 171 0.0 0.0 0.00 0.00 0.00 98 1013.3
20260903131511 61 171 0.0 0.0 0.00 0.00 0.00 98 1013.5
20260903130009 60 82 0.0 0.0 0.00 0.00 0.00 98 1013.6
20260903124610 60 107 0.0 0.0 0.00 0.00 0.00 98 1013.6
20260903123013 60 109 0.0 0.0 0.00 0.00 0.00 98 1013.7
20260903121514 59 109 0.0 0.0 0.00 0.00 0.00 98 1014.0
20260903120038 59 109 0.0 0.0 0.00 0.00 0.00 98 1013.9
20260903114534 60 220 0.0 0.0 0.00 0.00 0.00 98 1014.0
20260903113039 59 220 0.0 0.0 0.00 0.00 0.00 98 1014.0
20260903111552 59 220 0.0 0.0 0.00 0.00 0.00 98 1014.1
20260903110045 59 227 0.0 0.0 0.00 0.00 0.00 98 1014.1
20260903104553 59 241 0.0 0.0 0.00 0.00 0.00 98 1014.0
20260903103049 59 257 0.0 0.0 0.00 0.00 0.00 98 1014.1
20260903101520 59 63 0.0 0.0 0.00 0.00 0.00 97 1014.0
20260903100131 59 85 0.0 0.0 0.00 0.00 0.00 97 1013.9
20260903094602 59 85 0.0 0.0 0.00 0.00 0.00 97 1013.7
20260903093032 59 85 0.0 0.0 0.00 0.00 0.00 97 1013.8
20260903091513 59 85 0.0 0.0 0.00 0.00 0.00 97 1014.0
20260903090029 59 85 0.0 0.0 0.00 0.00 0.00 97 1013.8
20260903084542 59 85 0.0 0.0 0.00 0.00 0.00 97 1014.0
20260903083053 59 100 0.0 0.0 0.00 0.00 0.00 97 1014.2
20260903081549 59 100 0.0 0.0 0.00 0.00 0.00 96 1014.2
20260903080052 59 42 0.0 0.0 0.00 0.00 0.00 96 1014.2
20260903074612 59 41 0.0 0.0 0.00 0.00 0.00 96 1014.4
20260903073049 58 41 0.0 0.0 0.00 0.00 0.00 96 1014.3
20260903071547 58 145 0.0 0.0 0.00 0.00 0.00 96 1014.3
20260903070052 58 60 0.0 0.0 0.00 0.00 0.00 96 1014.5
20260903064559 58 84 0.0 0.0 0.00 0.00 0.00 95 1014.7
20260903063103 58 85 0.0 0.0 0.00 0.00 0.00 95 1014.8
20260903061544 58 83 0.0 0.0 0.00 0.00 0.00 95 1015.0
20260903054553 59 123 0.0 0.0 0.00 0.00 0.00 94 1015.5
20260903053110 59 175 0.0 0.0 0.00 0.00 0.00 93 1015.8
20260903051557 59 144 0.0 0.0 0.00 0.00 0.00 92 1016.1
20260903050044 59 43 0.0 0.0 0.00 0.00 0.00 92 1016.1
20260903044551 59 29 0.0 0.0 0.00 0.00 0.00 91 1016.0
20260903043100 60 57 0.0 0.0 0.00 0.00 0.00 90 1016.1
20260903041605 60 75 0.0 0.0 0.00 0.00 0.00 89 1016.4
20260903040041 60 108 0.0 0.0 0.00 0.00 0.00 89 1016.9
20260903034518 60 108 0.0 0.0 0.00 0.00 0.00 89 1016.7
20260903033049 60 105 0.0 0.0 0.00 0.00 0.00 89 1016.7
20260903031546 60 63 0.0 0.0 0.00 0.00 0.00 90 1016.8
20260903030048 60 87 0.0 0.0 0.00 0.00 0.00 90 1016.9
20260903024546 61 74 0.0 0.0 0.00 0.00 0.00 91 1017.1
20260903023134 61 64 0.0 0.0 0.00 0.00 0.00 92 1017.2
20260903021601 61 84 0.0 0.0 0.00 0.00 0.00 92 1017.6
20260903020051 61 92 0.0 0.0 0.00 0.00 0.00 91 1017.6
20260903014613 61 89 0.0 0.0 0.00 0.00 0.00 91 1018.2
20260903013059 61 59 0.0 0.0 0.00 0.00 0.00 91 1018.3
20260903011525 61 65 0.0 0.0 0.00 0.00 0.00 91 1018.0
20260903010112 61 125 0.0 0.0 0.00 0.00 0.00 92 1018.0
20260903004608 61 30 0.0 0.0 0.00 0.00 0.00 92 1017.9
20260903003109 61 24 0.0 0.0 0.00 0.00 0.00 92 1017.7
20260903001547 61 85 0.0 0.0 0.00 0.00 0.00 91 1017.2
20260903000047 62 73 0.0 0.0 0.00 0.00 0.00 92 1017.5
20260902234511 62 73 0.0 0.0 0.00 0.00 0.00 91 1017.8
20260902233014 62 71 0.0 0.0 0.00 0.00 0.00 90 1017.9
20260902231558 62 71 0.0 0.0 0.00 0.00 0.00 90 1018.0
20260902230058 63 92 0.0 0.0 0.00 0.00 0.00 90 1018.6
20260902224539 63 121 0.0 0.0 0.00 0.00 0.00 89 1018.8
20260902223045 63 13 0.0 0.0 0.00 0.00 0.00 89 1019.1